X  Close Drizzle tonight and tomorrow morning.
Conditions Temperature Feels Precipitation Wind Wind Direction UV index Pressure
20:00 partly-cloudy-night Partly Cloudy 18° - 15-39 km/h NW NW - 1008,6
21:00 partly-cloudy-night Partly Cloudy 17° - 16-41 km/h NW NW - 1007,3
22:00 partly-cloudy-night Partly Cloudy 17° - 18-43 km/h NW NW - 1006,5
23:00 partly-cloudy-night Mostly Cloudy 16° - 20-45 km/h WNW WNW - 1006,0
00:00 partly-cloudy-night Mostly Cloudy 16° - 23-46 km/h West West - 1004,9
01:00 cloudy Overcast 15° 0.01 mm 3% 25-48 km/h WNW WNW - 1003,9
02:00 cloudy Overcast 15° 0.06 mm 10% 29-52 km/h NE NE - 1003,2
03:00 rain Possible Drizzle 14° 0.19 mm 31% 32-56 km/h SSE SSE - 1002,8
04:00 rain Possible Drizzle 14° 0.31 mm 44% 34-58 km/h West West - 1002,7
05:00 rain Possible Drizzle 13° 0.28 mm 54% 33-59 km/h West West - 1003,1
06:00 rain Possible Drizzle 12° 0.2 mm 51% 32-58 km/h West West - 1003,8
07:00 rain Possible Drizzle 12° 0.15 mm 44% 31-58 km/h WSW WSW - 1004,6
08:00 rain Possible Drizzle 12° 0.12 mm 34% 32-58 km/h WSW WSW - 1005,5
09:00 partly-cloudy-day Mostly Cloudy 12° 0.09 mm 23% 34-58 km/h WSW WSW uv-1 1006,4
10:00 partly-cloudy-day Mostly Cloudy 12° 0.08 mm 18% 36-60 km/h WSW WSW uv-2 1007,2
11:00 wind Windy and Mostly Cloudy 12° 0.07 mm 17% 38-64 km/h WSW WSW uv-3 1007,5
12:00 wind Windy and Mostly Cloudy 12° 0.08 mm 22% 40-68 km/h WSW WSW uv-4 1007,7
13:00 wind Windy and Mostly Cloudy 12° 0.08 mm 22% 41-69 km/h WSW WSW uv-4 1008,0
14:00 wind Windy and Mostly Cloudy 13° 0.07 mm 14% 39-66 km/h WSW WSW uv-3 1008,5
15:00 partly-cloudy-day Mostly Cloudy 14° 0.06 mm 10% 36-60 km/h SW SW uv-2 1009,1
16:00 partly-cloudy-day Mostly Cloudy 14° 0.06 mm 6% 33-54 km/h SW SW uv-1 1009,9
17:00 partly-cloudy-day Mostly Cloudy 14° 0.04 mm 4% 30-47 km/h SW SW - 1010,9
18:00 partly-cloudy-night Partly Cloudy 13° 0.03 mm 4% 26-39 km/h SW SW - 1012,1
19:00 clear-night Clear 12° 0.04 mm 4% 24-34 km/h SW SW - 1013,2
20:00 clear-night Clear 12° 0.04 mm 5% 23-34 km/h WSW WSW - 1014,3
21:00 clear-night Clear 12° 0.04 mm 4% 22-36 km/h WSW WSW - 1015,4
22:00 clear-night Clear 11° 0.04 mm 4% 21-36 km/h SW SW - 1016,2
23:00 clear-night Clear 11° 0.03 mm 4% 20-33 km/h SW SW - 1016,7
00:00 clear-night Clear 11° 0.03 mm 4% 18-29 km/h WSW WSW - 1016,9
01:00 clear-night Clear 11° 0.02 mm 4% 17-26 km/h WSW WSW - 1017,1
02:00 partly-cloudy-night Partly Cloudy 11° 0.02 mm 3% 16-27 km/h WSW WSW - 1017,3
03:00 partly-cloudy-night Partly Cloudy 11° 0.04 mm 5% 16-30 km/h SW SW - 1017,5
04:00 partly-cloudy-night Mostly Cloudy 11° 0.06 mm 6% 16-33 km/h SW SW - 1017,8
05:00 partly-cloudy-night Mostly Cloudy 10° 0.05 mm 7% 15-32 km/h WSW WSW - 1018,2
06:00 partly-cloudy-night Mostly Cloudy 10° 0.04 mm 6% 15-31 km/h WSW WSW - 1018,9
07:00 partly-cloudy-day Mostly Cloudy 10° 0.03 mm 5% 15-30 km/h WSW WSW - 1019,4
08:00 partly-cloudy-day Partly Cloudy 11° 0.02 mm 3% 15-28 km/h WSW WSW - 1019,9
09:00 partly-cloudy-day Partly Cloudy 12° 0.01 mm 3% 16-25 km/h WSW WSW uv-1 1020,4
10:00 partly-cloudy-day Partly Cloudy 13° 0.01 mm 1% 17-23 km/h SW SW uv-3 1020,7
11:00 partly-cloudy-day Partly Cloudy 14° - 16-21 km/h SW SW uv-4 1020,6
12:00 partly-cloudy-day Mostly Cloudy 15° - 15-19 km/h SW SW uv-4 1020,4
13:00 cloudy Overcast 15° - 14-18 km/h WSW WSW uv-4 1020,0
14:00 cloudy Overcast 16° - 14-17 km/h SW SW uv-3 1019,6
15:00 cloudy Overcast 16° - 14-17 km/h SW SW uv-2 1019,3
16:00 cloudy Overcast 15° - 14-17 km/h SW SW uv-1 1019,1
17:00 cloudy Overcast 14° - 13-17 km/h SW SW - 1019,7
18:00 cloudy Overcast 13° 0.01 mm 2% 11-18 km/h WSW WSW - 1020,4
19:00 cloudy Overcast 12° 0.01 mm 2% 10-18 km/h WSW WSW - 1020,9
20:00 cloudy Overcast 11° 0.01 mm 2% 10-18 km/h West West - 1021,2